CINOVEC Weather Reports


time (UTC)temp
F
wind
direction
speed
knots
gust
knots
rain 1hr
in
rain 24hr
in
rain mn
in
humidity
%
barometer
mb
20260902042032 50 260 8.7 0.0 0.00 0.00 0.00 99
20260902031728 52 230 5.2 0.0 0.00 0.00 0.00 93
20260902021929 54 240 4.3 0.0 0.00 0.00 0.00 93
20260902011928 54 270 2.6 0.0 0.00 0.00 0.00 93
20260902001729 54 290 5.2 0.0 0.00 0.00 0.00 93
20260901231913 55 260 7.0 0.0 0.00 0.00 0.00 82
20260901222031 57 240 6.1 0.0 0.00 0.00 0.00 76
20260901211728 57 230 6.1 0.0 0.00 0.00 0.00 76
20260901201928 57 240 5.2 0.0 0.00 0.00 0.00 76
20260901191928 55 220 4.3 0.0 0.00 0.00 0.00 76
20260901181728 57 190 1.7 0.0 0.00 0.00 0.00 76
20260901171928 61 240 4.3 0.0 0.00 0.00 0.00 67
20260901162030 63 250 7.8 0.0 0.00 0.00 0.00 59
20260901151728 63 230 8.7 14.8 0.00 0.00 0.00 59
20260901141928 64 230 10.4 17.4 0.00 0.00 0.00 55
20260901131828 64 220 8.7 0.0 0.00 0.00 0.00 59
20260901121728 61 240 8.7 17.4 0.00 0.00 0.00 67
20260901111828 57 250 10.4 18.2 0.00 0.00 0.00 76
20260901102030 57 240 8.7 17.4 0.00 0.00 0.00 76
20260901091728 55 260 7.8 17.4 0.00 0.00 0.00 82
20260901081929 54 260 7.0 14.8 0.00 0.00 0.00 87
20260901071929 54 240 11.3 19.1 0.00 0.00 0.00 87
20260901061728 52 240 10.4 17.4 0.00 0.00 0.00 93
20260901051827 52 230 10.4 0.0 0.00 0.00 0.00 93